Погода Холмогоры

Поиск расширенной информации на нашем сайте:

Полезная информация:

Новости сайта



02.01.2020
Опубликован Долгосрочный прогноз погоды по городам России и ближнего зарубежья на январь 2020 года.
Карты: Прогноз на январь и февраль 2020 года, Сравнение прогнозируемой аномалии приземной температуры воздуха на январь 2020 года по разным моделям.




Погода Холмогоры - сегодня

Время (UTC), дата Ветер
(°,м/с) 
Видим.   Явления Облачность Т
(°С)
Тd
(°С)
f(%) Тe
(°С)
Pmin
(гПа)
dP
(гПа)
Po
(мм)
O2
(г/м3)
Тmin Tmax R s Состояние
почвы
00 30.11.20 170 (Ю) 10 км  {снег}  10/10 300 м 
[Frnb]
-5.7 -6.8 92 -7  1036.1  -1.1  776  320           
03 30.11.20 160 (Ю) 10 км    10/10 210 м 
[St]
-5.4 -5.8 97 -7  1034.8  -1.2  775  319  -9.3    0.2  равномерный
сухой снег
100% 
06 30.11.20 170 (Ю) 4000 м  дымка  10/10 120 м 
[St]
-4.9 -5.3 97 -6  1033.7  -1.1  774  318           
09 30.11.20 160 (Ю) 4000 м  снежные зёрна  10/10 180 м 
[St]
-4 -4.5 96 -6  1033.4  -0.2  774  317           
12 30.11.20 160 (Ю) 4000 м  дымка{снег}  10/10 180 м 
[St]
-2.8 -3.3 96 -5  1031.6  -1.8  772  315           
15 30.11.20 170 (Ю) 10 км    10/10 150 м 
[St]
-2 -2.4 97 -3  1029.8  -1.8  771  313    -2  0.4     
18 30.11.20 150 (ЮВ) 4000 м  слаб. снег  10/8 480 м средняя 
[Frnb|As op]
-1.1 -2.2 92 -2  1028  -1.7  770  312           
21 30.11.20 160 (Ю) 4000 м  слаб. снег  10/8 240 м средняя 
[Frnb|As op]
-1 -1.5 96 -3  1025.8  -2.2  768  311           
00 01.12.20 170 (Ю) 10 км  слаб. снег  10/8 420 м средняя 
[Frnb|As op]
-0.1 -1 94 -2  1024.5  -1.3  767  309           
03 01.12.20 180 (Ю) 4000 м  слаб. снег  10/8 420 м средняя 
[Frnb|As op]
-0 -0.7 95 -2  1023.4  -1.1  766  309  -2    0.6  равномерный
мокрый или
старый снег
100% 
06 01.12.20 190 (Ю) 2000 м  снег  10/8 300 м средняя 
[Frnb|As op]
-0.1 -0.5 97 -2  1023.3  0.1  766  309           
09 01.12.20 180 (Ю) 20000 м  {снег}  10/5 600 м кучево-дожд., средняя 
[Cb cap|Ac As]
-0 -0.9 94 -2  1023.2  0.1  766  309           
12 01.12.20 190 (Ю) 4{10}  20000 м  {ливн. осадки, снег}  10/8 900 м кучево-дожд., средняя 
[Cb cap|Ac und]
-0.2 -1.2 93 -3  1022.9  -0.3  766  309           
15 01.12.20 190 (Ю) 20000 м  в посл. час ливневой снег  10/8 1200 м кучево-дожд., средняя 
[Cb cap|Ac und]
-1.3 -2 95 -2  1023  0.1  766  310    +0.1     
18 01.12.20 200 (Ю) 20000 м  {ливн. осадки}  10/8 1000 м кучево-дожд., средняя 
[Cb cap|Ac trans]
-0.9 -2.1 92 -3  1023.4  0.3  766  310           
21 01.12.20 200 (Ю) 20000 м  {ливн. осадки}  10/10 700 м кучево-дожд. 
[Cb cap]
-0.4 -1.9 90 -2  1023.7  0.3  767  310           
00 02.12.20 190 (Ю) 5{10}  4000 м  слаб. снег{ливн. осадки}  10/8 270 м средняя 
[Frnb|As op]
-0.6 -1.3 95 -4  1022.1  -1.6  765  309           
03 02.12.20 210 (ЮЗ) 3{10}  10 км  слаб. снег  10/8 400 м средняя 
[Frnb|As op]
-0.1 -0.5 97 -2  1022.5  0.4  766  309  -1.3    0.6  равномерный
сухой снег
100% 
06 02.12.20 230 (ЮЗ) 20000 м  {снег}  10/8 660 м средняя 
[Sc|As op]
+0.8 -0.2 93 1024.4  1.8  767  308           
09 02.12.20 240 (ЮЗ) 20000 м    10/8 570 м кучево-дожд., средняя 
[Cb cap|As op]
+0.6 -0.4 93 +1  1026.8  2.4  769  309           
12 02.12.20 230 (ЮЗ) 20000 м    10/8 1110 м кучево-дожд., средняя 
[Cb cap|Ac As]
+0.5 -0.4 94 -1  1028.1  1.3  770  310           
15 02.12.20 240 (ЮЗ) 20000 м    10/8 800 м средняя 
[Sc|Ac und]
+0.5 -1.7 85 -1  1028.7  0.6  770  310    +0.8  0.0     
18 02.12.20 220 (ЮЗ) 20000 м  {ливн. осадки}  10/8 700 м кучево-дожд., средняя 
[Cb cap|Ac und]
-0.8 -2.6 88 1029.2  0.5  771  312           
21 02.12.20 220 (ЮЗ) 10 км  слаб. ливневой снег  10/8 300 м кучево-дожд., средняя 
[Cb cap|Ac As]
-1.4 -2 96 -2  1029.2  771  312           
00 03.12.20 240 (ЮЗ) 20000 м  {ливн. осадки}  10/8 330 м кучево-дожд., средняя 
[Cb cap|Ac As]
-1.6 -2.6 93 -3  1030.3  1.1  771  313           
Время (UTC), дата Ветер
(°,м/с) 
Видим.   Явления Облачность Т
(°С)
Тd
(°С)
f(%) Тe
(°С)
Pmin
(гПа)
dP
(гПа)
Po
(мм)
O2
(г/м3)
Тmin Tmax R s Состояние
почвы

Для получения пояснительной информации подведите курсор к названию столбца.

ПОГОДА Холмогоры - архив

Всё, что Вы хотите узнать о погоде Холмогоры - удобно и подробно!

Выберите нужную дату (начиная с 1 января 2019* года) и нажмите кнопку "Найти".
Будут отображены архивные сводки погоды по пункту Холмогоры, начиная с указанной даты.


Отображать данные в формате CSV (для использования в таблицах Excel)


Внимание! Наш архив погоды предназначен исключительно для личного некоммерческого использования в познавательных целях. Если Вам необходимы официальные справки о состоянии погоды (для производственных, юридических, коммерческих и т.п. целей), обращайтесь в органы Росгидромета.

*Примечание: данная дата относится к архиву по метеостанциям СССР (Россия, СНГ, Балтия).
Архив по метеостанциям Зарубежной Европы и Азии (кроме Китая) хранится 10 дней, по другим регионам земного шара (Китай, Африка, Америка, Австралия, Океания) - 1 день.

Холмогоры - район местоположения метеостанции


Название, широта, долгота, высота метеостанции:
Холмогоры 64.2°ш. 41.7°д. 12 м над ур. моря [Российская Федерация]

Дополнительная информация

В oтличие oт бoльшинства пoгoдных сайтoв мы публикуем пoдрoбную метеoинфoрмацию в детальнoм прoфессиoнальнoм фoрмате.

Характеристики температуры и влажнoсти вoздуха измеряются на высoте 2 м в тени вдали oт зданий и деревьев.
Скoрoсть ветра измеряется на высoте 10 м (на урoвне рoста челoвека скoрoсть ветра ниже в 1.5-2 раза). Если метеoстанция нахoдится в гoрoде или в лесу, тo скoрoсть ветра занижена на 2-4 м/с пo сравнению с oткрытым местoм. Скoрoсть ветра над акватoриями крупных рек и oзёр, а также на вершинах хoлмoв на 2-5 м/с выше, чем в oбычных услoвиях.
Атмoсфернoе давление в разных тoчках местнoсти мoжет значительнo oтличаться oт давления на метеoстанции, в зависимoсти oт услoвий рельефа (при пoдъёме на 10 м давление пoнижается примернo на 1 мм рт.ст.).